Minangkabau Airport

Jump to: basic info | weather | frequencies | runways | comments

Related pages: nearby airports | nearby navaids | notams | map

Basic information (top)

Codes: PDG WIPT
Location: lon -0.786917, lat 100.280998, elev 18 ft / 5 m msl
Status: medium_airport
Scheduled airline service: yes
Links: Wikipedia Mobile

Weather (top)

Current conditions (rec'd 2014/10/21 23:00Z):

WIPT 212300Z VRB02KT 6000 R33/M0050N BKN018 25/23 Q1012

Airport forecast (rec'd 2014/10/21 12:00Z):

TAF WIPT 211100Z 2112/2212 22004KT 8000 BKN018 
      TEMPO 2112/2114 20007KT 4000 RA BKN016 
      BECMG 2115/2117 VRB02KT 6000 SCT018 
      BECMG 2120/2122 04004KT 7000 SCT020

Frequencies (top)

Verify before use: may be inaccurate or out of date.

APP: 124 MHz (PADANG APP)
ATIS: 127.25 MHz (ATIS)
TWR: 118.3 MHz (MINANG TWR)

Runways (top)

15/33: 9,020 x 148 ft (2,749 x 45 m) — paved — lighted

Latest comments (top)

No comments yet for Minangkabau Airport

More... (top)

See also NOTAMs and nearby airports and navaids, or visit the Minangkabau Airport page at the main OurAirports website..